Sauk Centre, MN

9:58 PM CDT on October 18, 2019 (GMT -0500)
Sauk Centre

Weather History for KD39 - August, 2019

Change the Weather History Date:

Friday, August 9, 2019

  Actual Average (WUND) Record (WUND)
Temperature  
Mean Temperature 62 °F -  
Max Temperature 76 °F - - (-1)
Min Temperature 48 °F - - (-1)
Degree Days  
Heating Degree Days 4    
Growing Degree Days 12 (Base 50)    
Moisture  
Dew Point 52 °F    
Average Humidity 71    
Maximum Humidity 98    
Minimum Humidity 40    
Precipitation  
Precipitation 0.00 in - - ()
Sea Level Pressure  
Sea Level Pressure 30.01 in    
Wind  
Wind Speed 1 mph (SSW)    
Max Wind Speed 13 mph    
Max Gust Speed -    
Visibility 10 miles    
Events      
Averages and records for this station are not official NWS values.
T = Trace of Precipitation, MM = Missing Value Source: NWS Daily Summary

Daily Weather History Graph

Daily Weather History Graph

Search for Another Location

Airport or City:

Astronomy

Aug. 09, 2019 Rise Set
Actual Time 6:12 AM CDT 8:37 PM CDT
Civil Twilight 5:39 AM CDT 9:10 PM CDT
Nautical Twilight 4:57 AM CDT 9:51 PM CDT
Astronomical Twilight 4:10 AM CDT 10:38 PM CDT
Moon 4:23 PM CDT (8/9) 1:08 AM CDT (8/9)
Length of Visible Light 15h 31m
Length of Day
14h 24m
Waxing Gibbous, 70% of the Moon is Illuminated
Aug 9
Waxing Gibbous
Aug 15
Full
Aug 23
Last Quarter
Aug 30
New
Sep 5
First Quarter

Hourly Weather History & Observations

Time (CDT) Temp. Dew Point Humidity Pressure Visibility Wind Dir Wind Speed Gust Speed Precip Events Conditions
12:15 AM 52.2 °F 49.3 °F 90% 30.00 in 7.0 mi Calm Calm - N/A   Clear
12:37 AM 52.5 °F 49.1 °F 88% 30.01 in 10.0 mi Calm Calm - N/A   Clear
12:55 AM 52.9 °F 49.1 °F 87% 30.01 in 10.0 mi Calm Calm - N/A   Clear
1:15 AM 52.5 °F 49.3 °F 89% 30.00 in 10.0 mi Calm Calm - N/A   Clear
1:16 AM 52.7 °F 49.5 °F 89% 30.00 in 10.0 mi Calm Calm - N/A   Clear
1:35 AM 52.0 °F 48.9 °F 89% 30.00 in 10.0 mi Calm Calm - N/A   Clear
1:36 AM 51.8 °F 48.9 °F 90% 30.00 in 10.0 mi Calm Calm - N/A   Clear
1:55 AM 50.9 °F 49.1 °F 94% 30.00 in 10.0 mi West 3.5 mph - N/A   Clear
2:00 AM 50.9 °F 49.3 °F 94% 30.00 in 10.0 mi Calm Calm - N/A   Clear
2:17 AM 51.1 °F 49.1 °F 93% 30.00 in 10.0 mi Calm Calm - N/A   Clear
2:36 AM 51.3 °F 49.3 °F 93% 30.00 in 10.0 mi Calm Calm - N/A   Clear
2:55 AM 50.7 °F 49.1 °F 94% 30.00 in 10.0 mi Calm Calm - N/A   Clear
3:15 AM 50.0 °F 48.7 °F 95% 30.00 in 10.0 mi Calm Calm - N/A   Clear
3:16 AM 50.0 °F 48.6 °F 95% 29.99 in 10.0 mi Calm Calm - N/A   Clear
3:39 AM 50.0 °F 48.6 °F 95% 29.99 in 10.0 mi Calm Calm - N/A   Clear
3:57 AM 50.0 °F 47.5 °F 91% 30.00 in 10.0 mi Calm Calm - N/A   Clear
4:15 AM 49.6 °F 47.3 °F 92% 30.00 in 10.0 mi Calm Calm - N/A   Clear
4:16 AM 49.3 °F 46.9 °F 92% 30.00 in 10.0 mi Calm Calm - N/A   Clear
4:35 AM 50.5 °F 48.6 °F 93% 30.01 in 10.0 mi WSW 3.5 mph - N/A   Clear
4:36 AM 50.4 °F 48.4 °F 93% 30.01 in 10.0 mi West 3.5 mph - N/A   Clear
4:55 AM 48.7 °F 47.7 °F 96% 30.01 in 10.0 mi Calm Calm - N/A   Clear
4:56 AM 48.7 °F 47.8 °F 97% 30.01 in 10.0 mi Calm Calm - N/A   Clear
5:19 AM 49.3 °F 48.4 °F 97% 30.02 in 10.0 mi Calm Calm - N/A   Clear
5:36 AM 51.1 °F 49.3 °F 94% 30.02 in 10.0 mi Calm Calm - N/A   Clear
5:56 AM 50.4 °F 48.7 °F 94% 30.02 in 10.0 mi Calm Calm - N/A   Clear
6:15 AM 49.3 °F 46.9 °F 92% 30.02 in 10.0 mi Calm Calm - N/A   Clear
6:16 AM 48.6 °F 46.2 °F 92% 30.02 in 10.0 mi Calm Calm - N/A   Clear
6:35 AM 48.4 °F 47.8 °F 98% 30.03 in 10.0 mi Calm Calm - N/A   Clear
6:36 AM 48.4 °F 47.7 °F 97% 30.03 in 10.0 mi Calm Calm - N/A   Clear
6:55 AM 48.7 °F 47.7 °F 96% 30.04 in 10.0 mi Calm Calm - N/A   Clear
6:59 AM 48.4 °F 47.3 °F 96% 30.04 in 10.0 mi Calm Calm - N/A   Clear
7:17 AM 49.5 °F 48.4 °F 96% 30.04 in 10.0 mi Calm Calm - N/A   Clear
7:36 AM 52.3 °F 51.1 °F 95% 30.04 in 10.0 mi Calm Calm - N/A   Clear
7:55 AM 55.6 °F 51.8 °F 87% 30.04 in 10.0 mi Calm Calm - N/A   Clear
7:56 AM 55.6 °F 51.8 °F 87% 30.04 in 10.0 mi Calm Calm - N/A   Clear
8:15 AM 57.4 °F 54.0 °F 88% 30.04 in 10.0 mi Calm Calm - N/A   Clear
8:38 AM 59.7 °F 54.1 °F 82% 30.04 in 10.0 mi Calm Calm - N/A   Clear
8:59 AM 61.9 °F 55.4 °F 79% 30.05 in 10.0 mi Calm Calm - N/A   Clear
9:17 AM 64.8 °F 54.1 °F 68% 30.05 in 10.0 mi Calm Calm - N/A   Clear
9:35 AM 66.0 °F 53.2 °F 63% 30.04 in 10.0 mi Calm Calm - N/A   Clear
9:36 AM 66.0 °F 52.9 °F 63% 30.04 in 10.0 mi Calm Calm - N/A   Clear
9:55 AM 68.0 °F 52.7 °F 58% 30.04 in 10.0 mi Calm Calm - N/A   Clear
9:56 AM 68.0 °F 52.9 °F 58% 30.04 in 10.0 mi Calm Calm - N/A   Clear
10:15 AM 69.6 °F 51.4 °F 52% 30.04 in 10.0 mi West 3.5 mph - N/A   Clear
10:20 AM 70.0 °F 50.9 °F 51% 30.04 in 10.0 mi WNW 3.5 mph - N/A   Clear
10:37 AM 70.5 °F 46.9 °F 43% 30.04 in 10.0 mi NNW 3.5 mph - N/A   Clear
10:55 AM 71.1 °F 48.9 °F 45% 30.05 in 10.0 mi Calm Calm - N/A   Clear
11:15 AM 71.8 °F 51.1 °F 48% 30.04 in 10.0 mi Calm Calm - N/A   Clear
11:16 AM 71.8 °F 50.7 °F 47% 30.04 in 10.0 mi Calm Calm - N/A   Clear
11:35 AM 71.6 °F 49.3 °F 45% 30.04 in 10.0 mi South 3.5 mph - N/A   Clear
11:36 AM 71.8 °F 49.6 °F 45% 30.05 in 10.0 mi SW 4.6 mph - N/A   Clear
11:59 AM 71.8 °F 48.9 °F 44% 30.04 in 10.0 mi NNW 3.5 mph - N/A   Clear
12:16 PM 73.2 °F 48.4 °F 41% 30.03 in 10.0 mi South 3.5 mph - N/A   Clear
12:35 PM 73.0 °F 48.2 °F 41% 30.03 in 10.0 mi Calm Calm - N/A   Clear
12:36 PM 73.0 °F 48.2 °F 41% 30.03 in 10.0 mi Calm Calm - N/A   Clear
12:55 PM 73.9 °F 49.8 °F 43% 30.04 in 10.0 mi South 6.9 mph - N/A   Clear
12:56 PM 73.9 °F 49.8 °F 43% 30.04 in 10.0 mi South 6.9 mph - N/A   Clear
1:19 PM 74.5 °F 50.7 °F 43% 30.03 in 10.0 mi West 5.8 mph - N/A   Clear
1:37 PM 75.4 °F 51.3 °F 43% 30.02 in 10.0 mi SSW 8.1 mph - N/A   Clear
1:55 PM 75.6 °F 52.5 °F 45% 30.01 in 10.0 mi SSW 6.9 mph - N/A   Clear
2:15 PM 75.6 °F 52.9 °F 45% 30.00 in 10.0 mi South 5.8 mph - N/A   Clear
2:16 PM 75.7 °F 52.9 °F 45% 30.00 in 10.0 mi South 5.8 mph - N/A   Clear
2:35 PM 75.7 °F 50.0 °F 40% 30.00 in 10.0 mi SW 4.6 mph - N/A   Clear
2:57 PM 75.6 °F 50.9 °F 42% 30.00 in 10.0 mi SW 4.6 mph - N/A   Clear
3:15 PM 75.7 °F 53.4 °F 46% 29.99 in 10.0 mi SSW 5.8 mph - N/A   Clear
3:35 PM 75.2 °F 54.0 °F 47% 30.00 in 10.0 mi WSW 11.5 mph - N/A   Clear
3:36 PM 75.2 °F 53.8 °F 47% 30.00 in 10.0 mi WSW 12.7 mph - N/A   Clear
3:55 PM 74.8 °F 54.0 °F 48% 29.99 in 10.0 mi SW 8.1 mph - N/A   Clear
3:56 PM 74.8 °F 53.8 °F 48% 29.99 in 10.0 mi SW 8.1 mph - N/A   Clear
4:18 PM 74.7 °F 53.8 °F 48% 29.99 in 10.0 mi SW 8.1 mph - N/A   Clear
4:36 PM 73.4 °F 52.9 °F 49% 29.99 in 10.0 mi WSW 5.8 mph - N/A   Clear
4:56 PM 73.2 °F 53.8 °F 50% 29.99 in 10.0 mi WSW 6.9 mph - N/A   Clear
5:15 PM 72.7 °F 53.2 °F 50% 29.99 in 10.0 mi West 5.8 mph - N/A   Clear
5:38 PM 72.1 °F 55.4 °F 56% 29.99 in 10.0 mi SW 3.5 mph - N/A   Clear
5:56 PM 71.6 °F 55.9 °F 58% 29.99 in 10.0 mi SW 3.5 mph - N/A   Clear
6:16 PM 71.4 °F 56.3 °F 59% 29.98 in 10.0 mi Calm Calm - N/A   Scattered Clouds
6:35 PM 71.4 °F 55.8 °F 58% 29.98 in 10.0 mi Calm Calm - N/A   Mostly Cloudy
6:55 PM 70.7 °F 56.7 °F 61% 29.99 in 10.0 mi Calm Calm - N/A   Scattered Clouds
6:59 PM 70.7 °F 56.8 °F 61% 29.99 in 10.0 mi SSW 3.5 mph - N/A   Clear
7:17 PM 70.3 °F 57.0 °F 63% 29.99 in 10.0 mi Calm Calm - N/A   Scattered Clouds
7:35 PM 70.5 °F 56.8 °F 62% 29.98 in 10.0 mi Calm Calm - N/A   Overcast
7:55 PM 69.3 °F 58.1 °F 68% 29.98 in 10.0 mi SSE 3.5 mph - N/A   Overcast
7:56 PM 69.3 °F 58.1 °F 68% 29.98 in 10.0 mi SSE 3.5 mph - N/A   Overcast
8:15 PM 67.6 °F 58.6 °F 73% 29.97 in 10.0 mi SE 3.5 mph - N/A   Mostly Cloudy
8:36 PM 67.5 °F 57.7 °F 71% 29.96 in 10.0 mi East 3.5 mph - N/A   Mostly Cloudy
8:56 PM 67.6 °F 57.2 °F 69% 29.96 in 10.0 mi Calm Calm - N/A   Mostly Cloudy
9:15 PM 65.5 °F 58.3 °F 77% 29.97 in 10.0 mi Calm Calm - N/A   Scattered Clouds
9:38 PM 67.3 °F 57.7 °F 71% 29.97 in 10.0 mi ENE 3.5 mph - N/A   Overcast
9:57 PM 65.5 °F 58.5 °F 78% 29.97 in 10.0 mi ESE 4.6 mph - N/A   Overcast
10:16 PM 65.3 °F 58.3 °F 78% 29.98 in 10.0 mi Calm Calm - N/A   Overcast
10:35 PM 66.2 °F 58.3 °F 76% 29.99 in 10.0 mi East 3.5 mph - N/A   Overcast
10:36 PM 66.2 °F 58.3 °F 76% 29.99 in 10.0 mi East 4.6 mph - N/A   Overcast
10:55 PM 65.3 °F 58.5 °F 78% 29.99 in 10.0 mi SSE 4.6 mph - N/A   Overcast
10:56 PM 65.3 °F 58.5 °F 78% 29.99 in 10.0 mi SSE 4.6 mph - N/A   Overcast
11:18 PM 64.0 °F 59.0 °F 84% 29.99 in 10.0 mi Calm Calm - N/A   Overcast
11:35 PM 64.4 °F 58.6 °F 82% 29.98 in 10.0 mi Calm Calm - N/A   Overcast
11:56 PM 65.3 °F 57.6 °F 76% 29.98 in 10.0 mi Calm Calm - N/A   Mostly Cloudy